Overview Statistics Trail Chart Weather Telemetry Raw packets
 

This is the latest recevied weather packets stored in our database for station/object WA6OOO. If no packets are shown the sender has not sent any weather packets the latest 10 day(s).

<< 88 89 90 91 92 93 94 >>
Time Temp. Humidity Pressure Rain* Wind** Luminosity Snow
1788022496 26.67° C 66% 1016.3 hPa 0 mm - 479 W/m² -
1788022196 26.67° C 68% 1016.2 hPa 0 mm - 406 W/m² -
1788021896 26.67° C 69% 1016.2 hPa 0 mm - 481 W/m² -
1788021595 26.67° C 69% 1016 hPa 0 mm - 322 W/m² -
1788021293 26.67° C 68% 1016.1 hPa 0 mm - 441 W/m² -
1788020988 26.11° C 71% 1016.1 hPa 0 mm - 482 W/m² -
1788020684 26.11° C 71% 1016.1 hPa 0 mm - 435 W/m² -
1788020378 25.56° C 72% 1016.1 hPa 0 mm - 396 W/m² -
1788020075 25° C 76% 1016.2 hPa 0 mm - 310 W/m² -
1788019775 25° C 76% 1016.2 hPa 0 mm - 298 W/m² -
1788019475 25° C 75% 1016.2 hPa 0 mm - 201 W/m² -
1788019172 25.56° C 73% 1016.3 hPa 0 mm - 288 W/m² -
1788018867 25.56° C 73% 1016.1 hPa 0 mm - 392 W/m² -
1788018562 25.56° C 73% 1015.9 hPa 0 mm - 324 W/m² -
1788018260 25° C 75% 1016.3 hPa 0 mm - 297 W/m² -
1788017957 25° C 74% 1016.4 hPa 0 mm - 244 W/m² -
1788017653 25° C 74% 1016.2 hPa 0 mm - 235 W/m² -
1788017350 25° C 73% 1016.3 hPa 0 mm - 117 W/m² -
1788017054 24.44° C 74% 1016.3 hPa 0 mm - 206 W/m² -
1788016745 24.44° C 75% 1016.3 hPa 0 mm - 103 W/m² -
1788016444 23.89° C 78% 1016.1 hPa 0 mm - 105 W/m² -
1788016143 23.89° C 78% 1015.9 hPa 0 mm - 77 W/m² -
1788015842 23.89° C 78% 1016.2 hPa 0 mm - 65 W/m² -
1788015537 23.89° C 79% 1016.3 hPa 0 mm - 60 W/m² -
1788015232 23.89° C 79% 1016 hPa 0 mm - 57 W/m² -

* Rain latest hour (hover to see other rain measurements)
** Current wind speed in m/s (hover to see current wind gust speed)